Regional Weather Roundup
Issued by NWS Goodland, KS

Home | Current Version | Previous Version | Graphics & Text | Print | Product List | Glossary On
Versions: 1 2 3 4 5 6 7 8 9 10 11 12 13 14 15 16 17 18 19 20 21 22 23 24 25 26 27 28 29 30 31 32 33 34 35 36 37 38 39 40 41 42 43 44 45 46 47 48 49 50
867
ASUS43 KGLD 282208
RWRGLD

GOODLAND FORECAST AREA HOURLY WEATHER ROUNDUP
NATIONAL WEATHER SERVICE GOODLAND KS
400 PM MDT TUE MAR 28 2017

...OFFICIAL OBSERVATIONS...

CITY           SKY/WX    TMP DP  RH WIND       PRES   REMARKS
GOODLAND KS    RAIN      42  41  96 E12       29.95R FOG
HILL CITY KS   RAIN      48  47  96 E9        29.99R FOG
IMPERIAL NEB   LGT RAIN  44  42  93 SE17      29.99R FOG
MCCOOK NEB     LGT RAIN  47  46  97 E7        30.01R FOG
AKRON CO       LGT RAIN  44  42  93 SE20G26   29.87S FOG
BURLINGTON CO  LGT RAIN  44  42  93 E21       29.88F
LIMON CO       LGT RAIN  43  43 100 SE12      29.86R
$$

...UNOFFICIAL OBSERVATIONS...

CITY           SKY/WX    TMP DP  RH WIND       PRES   REMARKS
NORTON KS      LGT RAIN  48  43  81 CALM      29.99
SHARON SPRINGS   N/A     42  41  96 NE14        N/A
TRENTON NEB      N/A     45  32  60 SE6         N/A
KIT CARSON CO    N/A     46  42  86 MISG        N/A
YUMA CO        DRIZZLE   43  41  93 E21       29.89S
$$




USA.gov is the U.S. government's official web portal to all federal, state and local government web resources and services.